Location: Buckland
(65.9785°N, 161.1281°W)
Time: 11:41:12
(UTC+00:00)

S-56A Canister/Altair - All Passes

Search period start: 30 November 2020 00:00
Search period end: 10 December 2020 00:00
Orbit: 633 x 2500 km, 38.9° (Epoch: 29 November)

Date Brightness Start Highest point End Pass type
(mag) Time Alt. Az. Time Alt. Az. Time Alt. Az.
04 Dec - 05:04:05 10° S 05:05:29 10° SSE 05:06:49 10° SSE visible
04 Dec - 07:05:09 10° SSW 07:07:21 11° S 07:09:24 10° S visible
05 Dec - 04:30:38 10° S 04:32:46 11° SSE 04:34:47 10° SSE visible
05 Dec - 06:31:09 10° SSW 06:34:43 12° S 06:37:56 10° SSE visible
06 Dec - 03:57:31 10° S 04:00:01 11° SSE 04:02:23 10° SSE visible
06 Dec - 05:57:27 10° SSW 06:02:03 13° S 06:06:05 10° SSE visible
07 Dec - 03:24:38 10° SSE 03:27:14 11° SSE 03:29:43 10° SE visible
07 Dec - 05:23:55 10° SSW 05:29:19 14° S 05:34:01 10° SSE visible
07 Dec - 07:29:08 10° SW 07:31:05 11° SSW 07:32:55 10° SSW visible
08 Dec - 02:52:01 10° SSE 02:54:27 11° SSE 02:56:46 10° SE visible
08 Dec - 04:50:31 10° SSW 04:56:32 15° S 05:01:49 10° SSE visible
08 Dec - 06:54:35 10° SW 06:58:27 12° SSW 07:01:56 10° S visible
09 Dec - 02:19:47 10° SSE 02:21:38 10° SSE 02:23:25 10° SE visible
09 Dec - 04:17:11 10° SSW 04:23:44 15° S 04:29:28 10° SE visible
09 Dec - 06:20:36 10° SW 06:25:46 14° SSW 06:30:18 10° S visible
